Regional Weather Roundup
Issued by NWS Newport/Morehead, NC

Current Version | Previous Version | Text Only | Print | Product List | Glossary On
Versions: 1 2 3 4 5 6 7 8 9 10 11 12 13 14 15 16 17 18 19 20 21 22 23 24 25 26 27 28 29 30 31 32 33 34 35 36 37 38 39 40 41 42 43 44 45 46 47 48 49 50
225
ASUS42 KMHX 211626
RWRMHX
WEATHER ROUNDUP FOR EASTERN NORTH CAROLINA
NATIONAL WEATHER SERVICE NEWPORT/MOREHEAD CITY NC
1100 AM EST TUE FEB 21 2017

NOTE: "FAIR" INDICATES FEW OR NO CLOUDS BELOW 12,000 FEET
WITH NO SIGNIFICANT WEATHER AND/OR OBSTRUCTIONS TO VISIBILITY

NCZ015>017-031-032-045>047-102-103-211700-
NORTH COAST

CITY           SKY/WX    TMP DP  RH WIND       PRES   REMARKS
EDENTON        SUNNY     59  40  48 E13       30.28F
ELIZABETH CITY SUNNY     56  39  53 E10       30.29F
KITTY HAWK     NOT AVBL
MANTEO         SUNNY     54  42  63 E14       30.28F

$$

NCZ045>047-081-094-103-104-211700-
CENTRAL COAST

CITY           SKY/WX    TMP DP  RH WIND       PRES   REMARKS
FRISCO         SUNNY     62  51  67 N8        30.25S

$$

NCZ095-097-098-100-101-211700-
SOUTHERN COAST

CITY           SKY/WX    TMP DP  RH WIND       PRES   REMARKS
BEAUFORT       MOSUNNY   64  50  60 NE10      30.24F
CEDAR ISLAND   NOT AVBL
JACKSONVILLE   CLOUDY    58  47  66 NE3       30.25F
PINEY ISLAND   SUNNY    N/A N/A N/A NE16      30.24F
WILMINGTON     MOSUNNY   64  46  52 VRB5      30.24F


$$

NCZ011>013-027>030-043-044-078>080-089-090>093-098-211700-
COASTAL PLAIN

CITY           SKY/WX    TMP DP  RH WIND       PRES   REMARKS
AHOSKIE          N/A     55  39  56 E5        30.29S
CLINTON        MOSUNNY   59  44  56 CALM      30.27S
ELIZABETHTOWN  CLOUDY    63  44  49 E7        30.24S
GOLDSBORO      MOSUNNY   56  41  55 E6        30.25S
GREENVILLE     CLOUDY    55  43  62 E3        30.28S
HAVELOCK       MOSUNNY   59  47  64 NE12      30.26F
KENANSVILLE    NOT AVBL
KINSTON        MOSUNNY   57  43  58 NE6       30.27F
NEW BERN       MOSUNNY   59  47  64 E5        30.27F
RICHLANDS      CLOUDY    57  45  64 NE6       30.26F
ROCKY MOUNT    PTSUNNY   55  41  59 NE7       30.28F
WASHINGTON     MOSUNNY   57  45  63 E7        30.27S
WHITEVILLE     MOSUNNY   63  44  49 E6        30.23F

$$

AMZ130-135-150-152-154-156-158-170-250-252-270-ANZ085-086-088-633-658-670-211700-
MARINE OBSERVATIONS

STATION/POSITION TIME  TEMP    WIND        PRES    WAVE   SWELL
                       AIR SEA DIR/SP/G            HT/PER HT/PER
                 (UTC) (F)     (DEG/KT/KT) (MB)    (FT/S) (FT/S)
CHESAPEAKE LIGHT NOT AVBL
64 E VA BEACH    1550   51 54   70/ 14/ 16 1025.5    4/ 7   3/ 7
DUCK             1600   49 48   50/ 12/ 13 1025.1
2 E DUCK         1600      48                N/A     3/ 5
OREGON INLET     1600   51 51   20/ 11/ 14 1024.9
13E OREGON INLT  NOT AVBL
HATTERAS CG      1600   55 57   20/ 12/ 15 1023.9
DIAMOND BUOY     1550   64 75   90/ 12/ 14 1024.0    6/10   7/10
CAPE LOOKOUT     1600   57      30/ 13/ 15 1023.6
BEAUFORT LAB     1600   61 53   50/  7/ 12 1023.0
30 SE NEW RVR IN 1608   58      40/ 14/ 19 1023.8
30 SE NEW RVR IN 1613      67                N/A     4/ 4
27 SE WRIGHTSVLE 1608   59 63   60/ 14/ 19 1023.6
5 SE WRIGHTSVLE  1608   55 56   50/ 12/ 17 1024.0
225 S CAPE HAT   1550   66 70   60/ 16/ 19 1022.0    5/ 6   2/11
41 SE CHARLESTON 1550   69 66   90/ 16/ 17 1021.4    4/ 6   2/15

$$




USA.gov is the U.S. government's official web portal to all federal, state and local government web resources and services.